Flag for Canada Weather past 2 weeks in Paradise, Newfoundland and Labrador, Canada

Now
61 °F

Partly sunny.


Feels Like: 61 °F
Forecast: 43 / 55 °F
Wind: 28 mph from Southwest

Location: St. John's


UV Index: 3 (Moderate)

Visibility: 15 mi


Pressure: 30.19 "Hg

Humidity: 72%

Dew point: 52 °F

Location of ParadiseLocation

Historic Weather in Paradise

°F

Paradise temperature yesterday

Maximum temperature yesterday: 57 °F (at 2:30 PM)
Minimum temperature yesterday: 32 °F (at 12:30 AM)
Average temperature yesterday: 46 °F

Past Weeks' High & Low Weather Summary

 TemperatureHumidityPressure
High61 °F (Apr 16, 10:30 AM)100% (Apr 1, 10:30 AM)30.50 "Hg (Apr 1, 10:30 AM)
Low21 °F (Apr 3, 9:30 PM)37% (Apr 11, 12:30 PM)29.35 "Hg (Apr 10, 4:30 AM)
Average34 °F86%30.00 "Hg
* Reported Apr 1 10:30 AM — Apr 16 10:30 AM, Paradise, Weather by CustomWeather, © 2014

Note: Actual official high and low records may vary slightly from our data, if they occured in-between our weather recording intervals... More about our weather records

Advertising

Historic Weather Conditions — Data for Previous 24 hours

 ConditionsComfort  
Time TempWeatherWind HumidityBarometerVisibility
10:30 AM
Apr 16
61 °FPartly sunny.28 mph72%30.19 "Hg15 mi
9:30 AM59 °FScattered clouds.22 mph77%30.19 "Hg15 mi
8:30 AM54 °FPartly sunny.16 mph94%30.19 "Hg15 mi
7:30 AM52 °FLow clouds.23 mph94%30.19 "Hg10 mi
6:30 AM52 °FPassing clouds.23 mph94%30.16 "Hg15 mi
5:30 AM50 °FPartly cloudy.20 mph100%30.16 "Hg15 mi
4:30 AM52 °FLight rain. Fog.24 mph100%30.17 "Hg1 mi
4:22 AM52 °FLight rain. Fog.23 mph94%30.17 "Hg1 mi
3:30 AM52 °FDrizzle. Fog.21 mph94%30.17 "Hg1 mi
3:17 AM52 °FDrizzle. Fog.21 mph94%30.18 "Hg1 mi
2:30 AM50 °FDrizzle. Fog.21 mph100%30.19 "Hg6 mi
1:30 AM50 °FDrizzle. Fog.16 mph100%30.20 "Hg6 mi
12:30 AM50 °FLow clouds.20 mph94%30.20 "Hg15 mi
11:30 PM
Apr 15
50 °FPassing clouds.20 mph94%30.20 "Hg15 mi
10:30 PM50 °FMostly cloudy.22 mph94%30.19 "Hg15 mi
9:30 PM48 °FPassing clouds.22 mph94%30.19 "Hg15 mi
8:30 PM48 °FMostly cloudy.17 mph100%30.17 "Hg15 mi
7:30 PM52 °FPartly sunny.26 mph94%30.10 "Hg15 mi
6:30 PM54 °FPartly sunny.35 mph88%30.09 "Hg15 mi
5:30 PM55 °FPartly sunny.24 mph82%30.10 "Hg15 mi
4:30 PM57 °FBroken clouds.26 mph77%30.08 "Hg15 mi
3:30 PM55 °FMostly cloudy.29 mph82%30.09 "Hg15 mi
2:30 PM57 °FPartly sunny.28 mph77%30.08 "Hg15 mi
1:30 PM54 °FMore clouds than sun.30 mph82%30.08 "Hg15 mi
1:19 PM52 °FMore clouds than sun.25 mph88%30.08 "Hg15 mi
12:30 PM48 °FLow clouds.26 mph94%30.09 "Hg12 mi
11:30 AM48 °FCloudy.29 mph94%30.08 "Hg12 mi
Weather by CustomWeather, © 2014

See weather overview